Date,TemperatureHighF,TemperatureAvgF,TemperatureLowF,DewpointHighF,DewpointAvgF,DewpointLowF,HumidityHigh,HumidityAvg,HumidityLow,PressureMaxIn,PressureMinIn,WindSpeedMaxMPH,WindSpeedAvgMPH,GustSpeedMaxMPH,PrecipitationSumIn
2013-1-1,39,31,26,31,28,25,97,89,73,30.56,30.44,3,0,6,0.00
2013-1-2,42,32,23,30,26,22,96,81,62,30.43,30.29,8,1,8,0.01
2013-1-3,38,31,23,32,27,21,95,84,67,30.36,30.24,2,0,5,0.00
2013-1-4,52,42,36,46,40,33,97,91,78,30.42,30.27,4,0,7,0.00
2013-1-5,40,38,36,37,34,33,94,89,80,30.31,30.26,4,0,6,0.00
2013-1-6,48,42,36,44,40,35,96,92,86,30.34,30.20,2,0,12,0.03
2013-1-7,54,48,44,52,46,42,96,94,89,30.33,30.14,6,1,15,0.14
2013-1-8,54,50,47,51,48,45,97,92,87,30.32,30.02,9,2,14,0.04
2013-1-9,50,42,35,46,40,34,97,90,82,30.10,29.85,6,1,14,0.24
2013-1-10,44,36,32,40,35,31,98,95,84,30.23,30.10,3,0,6,0.12
2013-1-11,38,31,25,34,29,24,98,93,69,30.41,30.23,4,0,6,0.01
2013-1-12,32,27,24,31,26,23,97,96,94,30.52,30.41,4,0,8,0.00
2013-1-13,29,28,27,27,26,25,97,93,90,30.61,30.51,3,0,6,0.00
2013-1-14,36,30,26,31,28,25,94,90,81,30.68,30.61,2,0,4,0.00
2013-1-15,38,35,32,36,33,30,95,92,90,30.76,30.66,4,1,5,0.00
2013-1-16,34,33,31,33,32,31,97,96,93,30.76,30.60,3,0,5,0.00
2013-1-17,34,32,30,33,31,29,98,96,93,30.60,30.43,4,0,5,0.00
2013-1-18,35,32,29,33,31,29,98,97,93,30.44,30.38,2,0,4,0.01
2013-1-19,33,30,28,32,29,27,98,97,95,30.46,30.39,3,0,4,0.00
2013-1-20,30,29,28,30,28,27,98,97,97,30.47,30.36,2,0,5,0.00
2013-1-21,30,28,25,30,27,25,98,97,95,30.39,30.27,2,0,3,0.00
2013-1-22,31,28,26,30,28,25,98,97,96,30.28,30.05,3,0,4,0.00
2013-1-23,35,33,30,35,32,30,98,97,92,30.30,30.00,3,0,4,0.22
2013-1-24,40,36,32,39,36,31,98,98,94,30.32,30.22,3,0,5,0.32
2013-1-25,53,44,34,51,44,33,99,98,93,30.25,30.07,2,0,7,0.19
2013-1-26,47,39,34,44,39,34,99,97,81,30.21,30.07,4,0,7,0.31
2013-1-27,43,39,34,42,38,34,99,97,94,30.28,30.18,3,0,10,0.09
2013-1-28,44,41,37,43,40,37,99,97,94,30.36,30.21,2,0,8,0.10
2013-1-29,47,44,41,46,43,40,97,94,90,30.61,30.35,3,0,6,0.06
2013-1-30,51,46,42,48,44,40,97,93,88,30.61,30.55,4,1,9,0.02
2013-1-31,55,47,42,48,44,41,99,91,72,30.56,30.43,2,0,5,0.01
2013-2-1,53,43,36,47,41,35,98,93,77,30.45,30.34,3,0,9,0.00
2013-2-2,44,37,34,42,37,33,98,97,92,30.43,30.36,2,0,4,0.01
2013-2-3,49,43,37,45,42,36,99,95,87,30.44,30.33,3,0,4,0.01
2013-2-4,53,44,38,45,42,38,99,92,75,30.33,30.05,3,0,6,0.00
2013-2-5,53,46,42,47,43,40,95,89,75,30.17,30.04,8,1,10,0.17
2013-2-6,52,46,41,45,42,39,94,86,68,30.22,29.95,7,1,12,0.10
2013-2-7,48,40,34,41,37,33,98,90,71,30.22,30.06,6,1,10,0.03
2013-2-8,47,38,32,39,36,31,98,91,73,30.39,30.23,5,0,7,0.00
2013-2-9,45,41,36,41,39,35,97,92,80,30.41,30.37,2,0,4,0.08
2013-2-10,46,43,42,42,40,39,98,90,80,30.44,30.40,4,0,5,0.01
2013-2-11,48,44,40,43,40,37,91,84,70,30.50,30.41,4,0,7,0.00
2013-2-12,56,49,45,49,45,42,94,87,73,30.59,30.50,4,0,9,0.00
2013-2-13,54,49,46,48,45,42,93,87,78,30.61,30.53,4,0,7,0.00
2013-2-14,58,46,35,46,41,35,98,84,60,30.65,30.56,4,1,10,0.00
2013-2-15,56,45,41,47,42,39,98,90,71,30.56,30.32,5,1,7,0.00
2013-2-16,55,44,35,46,40,34,98,90,66,30.39,30.33,4,0,9,0.01
2013-2-17,48,41,34,40,36,33,98,84,56,30.40,30.19,4,0,5,0.00
2013-2-18,48,40,33,39,36,32,97,86,66,30.19,29.83,6,1,11,0.07
2013-2-19,52,42,36,42,38,35,97,90,58,30.10,29.76,6,1,10,0.18
2013-2-20,49,40,35,42,38,35,98,92,69,30.23,30.10,4,0,8,0.15
2013-2-21,45,40,34,42,38,34,98,93,84,30.33,30.23,5,1,9,0.07
2013-2-22,46,43,37,44,40,35,97,92,82,30.31,30.05,10,2,19,0.77
2013-2-23,50,39,32,41,36,31,98,88,64,30.56,30.22,6,1,10,0.05
2013-2-24,52,41,32,39,35,31,98,80,52,30.56,30.20,6,1,10,0.00
2013-2-25,51,42,35,42,38,34,97,86,54,30.50,30.17,6,1,12,0.24
2013-2-26,50,39,29,40,34,29,98,85,54,30.51,30.35,3,0,7,0.01
2013-2-27,51,44,37,45,42,35,97,89,75,30.41,30.33,4,0,8,0.05
2013-2-28,57,52,46,53,50,45,97,91,84,30.55,30.31,6,1,12,0.01
2013-3-1,64,55,48,53,50,47,95,85,67,30.56,30.41,4,0,7,0.00
2013-3-2,54,50,44,50,47,37,96,88,75,30.41,30.28,6,1,12,0.00
2013-3-3,51,42,33,38,34,30,98,75,46,30.42,30.32,10,1,10,0.01
2013-3-4,57,42,31,40,35,30,97,80,48,30.31,30.01,3,0,7,0.00
2013-3-5,49,42,35,44,41,34,97,94,82,30.01,29.72,6,1,9,0.43
2013-3-6,48,43,40,45,41,38,97,93,86,30.07,29.64,6,1,13,0.39
2013-3-7,57,44,30,42,36,30,98,78,40,30.15,30.07,5,0,8,0.00
2013-3-8,58,43,32,42,37,31,98,81,44,30.30,30.11,4,0,8,0.00
2013-3-9,62,44,30,44,37,30,98,79,42,30.59,30.31,5,0,9,0.01
2013-3-10,55,45,33,47,40,32,97,84,66,30.60,30.50,3,0,7,0.00
2013-3-11,62,52,46,51,48,45,95,86,68,30.52,30.35,2,0,4,0.00
2013-3-12,62,51,41,52,47,41,98,86,66,30.34,30.25,3,0,6,0.00
2013-3-13,67,55,45,52,48,44,94,80,55,30.33,30.18,3,0,5,0.00
2013-3-14,59,52,44,49,46,43,97,81,58,30.31,30.15,3,0,11,0.00
2013-3-15,67,55,46,52,48,44,94,79,53,30.33,30.26,6,1,7,0.00
2013-3-16,51,46,39,47,43,35,95,89,79,30.29,30.13,5,1,14,0.13
2013-3-17,51,42,34,40,35,32,96,79,54,30.43,30.30,5,0,10,0.00
2013-3-18,56,43,31,39,34,30,97,74,44,30.40,30.23,5,1,7,0.00
2013-3-19,49,43,38,46,40,35,98,88,75,30.22,29.78,2,0,7,0.63
2013-3-20,54,47,36,50,43,34,98,87,67,30.30,29.67,11,2,18,0.54
2013-3-21,50,41,35,41,36,33,96,84,59,30.44,30.31,7,1,14,0.06
2013-3-22,48,38,30,39,34,30,97,86,57,30.50,30.42,5,0,9,0.06
2013-3-23,51,40,31,38,32,29,97,76,49,30.49,30.36,4,0,7,0.01
2013-3-24,56,45,36,40,36,30,89,73,51,30.36,30.17,4,0,7,0.00
2013-3-25,59,48,39,42,38,34,86,70,51,30.17,30.01,5,0,8,0.00
2013-3-26,56,49,44,48,45,41,96,85,68,30.11,30.05,2,0,5,0.03
2013-3-27,65,50,41,53,46,40,98,87,59,30.09,29.99,3,0,10,0.30
2013-3-28,67,54,46,53,49,46,98,86,51,30.23,30.08,4,1,7,0.08
2013-3-29,69,57,48,54,50,47,98,81,56,30.29,30.21,6,0,7,0.01
2013-3-30,75,60,46,54,49,44,92,71,44,30.25,30.02,7,1,10,0.00
2013-3-31,76,60,47,56,51,45,95,73,48,30.11,30.00,6,1,13,0.00
2013-4-1,63,56,48,54,51,46,92,82,70,30.27,30.10,7,0,7,0.00
2013-4-2,70,57,46,54,49,44,97,77,53,30.31,30.21,5,1,7,0.00
2013-4-3,64,53,42,54,48,41,97,85,67,30.25,29.99,2,0,5,0.00
2013-4-4,62,56,52,58,52,48,96,88,75,29.98,29.79,9,1,14,0.18
2013-4-5,58,53,51,51,50,49,94,89,74,30.06,29.94,6,1,13,0.22
2013-4-6,58,51,47,50,48,45,96,89,65,30.11,29.84,8,1,15,0.74
2013-4-7,52,48,41,48,43,38,94,83,66,30.08,29.72,9,2,21,0.13
2013-4-8,56,47,37,47,42,36,98,84,64,30.39,30.09,5,0,7,0.03
2013-4-9,62,49,38,46,42,37,97,81,53,30.46,30.34,3,0,5,0.00
2013-4-10,64,52,40,53,46,38,97,81,58,30.45,30.28,7,1,14,0.03
2013-4-11,58,47,36,43,40,36,97,78,52,30.45,30.26,3,0,7,0.00
2013-4-12,58,48,36,47,41,34,96,80,63,30.24,29.98,5,0,8,0.01
2013-4-13,55,45,36,43,38,34,93,77,47,30.22,30.07,8,1,12,0.12
2013-4-14,51,43,36,44,40,34,97,89,71,30.22,30.04,4,0,9,0.77
2013-4-15,56,46,37,42,39,36,98,78,50,30.27,30.05,5,1,11,0.01
2013-4-16,60,48,36,43,39,35,97,74,43,30.49,30.28,7,1,12,0.00
2013-4-17,61,48,35,46,41,34,97,79,52,30.60,30.49,4,0,6,0.00
2013-4-18,65,53,41,49,44,39,96,74,52,30.58,30.43,3,0,6,0.00
2013-4-19,63,52,46,54,48,44,95,87,66,30.43,30.30,8,1,12,0.19
2013-4-20,63,53,45,47,45,42,96,77,52,30.45,30.35,5,1,8,0.00
2013-4-21,61,51,42,49,45,41,95,80,66,30.41,30.33,6,1,11,0.00
2013-4-22,67,54,42,44,38,31,88,60,30,30.48,30.39,8,2,19,0.00
2013-4-23,71,56,40,38,35,27,80,50,21,30.44,30.21,7,2,11,0.00
2013-4-24,76,60,45,39,35,31,68,42,21,30.30,30.07,9,2,11,0.00
2013-4-25,78,61,42,52,42,35,87,54,27,30.22,30.09,3,0,6,0.00
2013-4-26,81,62,43,54,45,32,96,60,17,30.33,30.22,5,1,7,0.00
2013-4-27,76,59,43,48,42,32,97,60,21,30.35,30.28,8,1,11,0.00
2013-4-28,70,58,50,51,47,42,87,67,37,30.38,30.22,5,1,9,0.00
2013-4-29,62,54,40,49,40,32,93,63,37,30.33,30.21,7,2,16,0.01
2013-4-30,60,47,33,39,34,31,96,66,35,30.52,30.33,5,1,10,0.00
2013-5-1,70,54,38,41,36,33,84,56,30,30.59,30.49,7,2,12,0.00
2013-5-2,80,64,45,45,39,34,70,42,23,30.51,30.30,8,2,11,0.00
2013-5-3,81,65,44,48,42,38,81,47,27,30.37,30.17,9,2,11,0.00
2013-5-4,86,70,54,48,39,31,64,36,15,30.19,29.93,12,2,16,0.00
2013-5-5,87,73,56,47,40,35,73,33,18,29.94,29.72,10,2,14,0.00
2013-5-6,84,64,51,56,50,45,84,63,34,30.00,29.84,5,1,8,0.00
2013-5-7,78,60,46,56,49,44,96,70,38,30.14,30.00,4,0,7,0.00
2013-5-8,72,57,43,56,49,42,97,79,53,30.24,30.14,4,0,9,0.00
2013-5-9,81,64,46,58,52,45,96,70,36,30.28,30.14,4,1,10,0.00
2013-5-10,84,67,50,61,54,49,97,66,32,30.28,30.17,4,0,6,0.00
2013-5-11,89,68,53,61,55,49,89,66,32,30.29,30.08,3,0,5,0.00
2013-5-12,77,64,57,61,56,49,92,76,42,30.21,30.15,4,1,9,0.01
2013-5-13,69,59,48,55,51,45,96,78,51,30.31,30.15,10,1,14,0.01
2013-5-14,70,57,46,47,42,36,93,62,30,30.32,30.18,5,1,10,0.00
2013-5-15,63,54,47,52,47,41,87,78,62,30.21,30.11,3,0,8,0.11
2013-5-16,62,56,49,55,51,47,96,85,65,30.11,30.04,4,0,7,0.20
2013-5-17,67,55,46,53,47,44,95,77,50,30.21,30.10,5,1,9,0.02
2013-5-18,62,54,48,52,50,46,94,84,69,30.37,30.20,4,0,9,0.04
2013-5-19,70,58,51,51,49,46,95,73,43,30.49,30.38,9,1,9,0.00
2013-5-20,76,58,45,52,45,39,92,67,30,30.42,30.02,3,1,9,0.00
2013-5-21,55,47,40,50,44,38,96,89,69,30.12,29.95,4,0,9,0.85
2013-5-22,52,46,41,48,43,39,93,89,79,30.12,30.05,7,2,12,0.18
2013-5-23,56,49,45,50,46,42,94,88,70,30.13,30.09,5,1,10,0.39
2013-5-24,61,52,46,49,47,45,96,83,62,30.19,30.10,7,1,10,0.04
2013-5-25,71,56,44,53,48,43,97,75,46,30.18,30.02,5,0,8,0.24
2013-5-26,65,57,50,54,50,47,97,80,58,30.14,30.05,8,1,15,0.09
2013-5-27,66,56,50,60,52,47,96,87,64,30.08,29.85,8,1,15,0.52
2013-5-28,67,57,51,52,50,46,94,77,50,30.04,29.86,8,1,14,0.15
2013-5-29,65,56,49,54,50,45,96,82,60,30.18,29.74,7,2,15,0.21
2013-5-30,65,55,48,51,47,45,93,75,51,30.35,30.18,9,1,9,0.02
2013-5-31,70,59,44,50,48,43,97,69,45,30.41,30.30,5,1,11,0.00
2013-6-1,78,62,44,56,51,43,97,70,43,30.33,30.10,3,0,8,0.00
2013-6-2,75,62,54,54,52,50,88,70,45,30.17,30.11,4,1,11,0.00
2013-6-3,78,62,49,55,51,47,93,69,35,30.19,30.09,6,1,11,0.00
2013-6-4,84,67,50,58,52,46,85,60,31,30.16,30.03,7,1,9,0.00
2013-6-5,86,70,53,61,56,51,96,63,30,30.16,30.02,6,1,8,0.00
2013-6-6,86,70,57,60,56,51,88,64,36,30.13,30.05,5,1,9,0.00
2013-6-7,86,66,51,60,52,37,94,65,24,30.21,30.13,4,1,11,0.00
2013-6-8,82,66,51,53,50,45,89,59,28,30.24,30.11,7,2,10,0.00
2013-6-9,76,64,52,53,48,46,81,60,35,30.18,30.04,7,2,14,0.00
2013-6-10,74,60,47,49,45,42,84,61,39,30.09,29.97,6,1,10,0.00
2013-6-11,67,58,50,48,45,43,84,64,45,30.25,30.09,4,1,10,0.00
2013-6-12,66,56,47,49,47,44,94,72,49,30.29,30.23,4,1,10,0.00
2013-6-13,63,54,48,58,50,46,95,86,64,30.40,30.28,5,1,9,0.68
2013-6-14,72,59,44,53,49,43,97,74,49,30.40,30.06,7,1,12,0.00
2013-6-15,81,65,48,59,52,46,96,68,39,30.11,29.98,4,1,7,0.00
2013-6-16,77,62,48,58,52,47,96,74,50,30.21,30.12,4,0,7,0.00
2013-6-17,78,62,48,54,51,47,96,70,38,30.21,30.04,7,1,11,0.00
2013-6-18,69,59,48,56,50,47,95,74,51,30.11,30.03,6,1,9,0.14
2013-6-19,66,57,48,56,50,46,96,80,58,30.21,30.06,5,0,10,0.17
2013-6-20,71,58,48,57,51,47,96,80,49,30.23,30.16,4,1,8,0.17
2013-6-21,76,62,52,54,51,49,94,70,41,30.26,30.19,3,0,8,0.00
2013-6-22,84,67,50,58,52,45,95,63,28,30.19,29.93,4,0,6,0.00
2013-6-23,75,64,58,63,59,53,95,83,59,29.94,29.73,4,0,8,0.09
2013-6-24,67,60,55,58,54,52,94,82,62,29.81,29.77,4,1,10,0.01
2013-6-25,69,61,56,62,57,54,97,87,65,29.94,29.77,9,0,9,0.34
2013-6-26,75,65,58,61,58,56,97,80,55,30.11,29.95,6,1,9,0.17
2013-6-27,85,72,59,64,61,57,96,72,47,30.22,30.09,5,1,10,0.00
2013-6-28,93,75,58,69,62,57,97,66,34,30.22,30.09,3,0,9,0.00
2013-6-29,90,75,60,65,60,57,93,62,35,30.18,30.02,5,1,7,0.00
2013-6-30,96,78,60,68,63,58,95,63,35,30.04,29.90,5,1,7,0.00
2013-7-1,92,77,62,71,64,59,91,66,46,30.07,29.98,5,1,7,0.00
2013-7-2,93,76,62,68,62,55,91,64,34,30.14,30.05,7,2,12,0.00
2013-7-3,88,73,61,59,52,40,78,53,19,30.20,30.08,5,2,12,0.00
2013-7-4,80,66,54,57,52,49,86,63,40,30.23,30.08,8,2,12,0.00
2013-7-5,78,66,52,56,52,48,87,63,41,30.15,30.00,5,1,13,0.00
2013-7-6,80,64,52,59,54,49,87,71,48,30.05,29.92,6,1,10,0.00
2013-7-7,83,68,53,59,55,52,96,68,35,30.05,29.93,9,1,11,0.00
2013-7-8,84,66,52,59,54,49,94,69,36,30.16,30.05,7,1,9,0.00
2013-7-9,92,75,57,62,58,54,91,60,31,30.15,30.02,6,1,9,0.00
2013-7-10,86,70,56,57,54,50,84,60,35,30.14,29.98,8,2,11,0.00
2013-7-11,78,64,52,52,48,45,81,59,31,30.16,30.01,9,2,12,0.00
2013-7-12,78,63,51,51,48,45,82,60,31,30.17,30.07,12,1,12,0.00
2013-7-13,82,66,51,52,47,41,77,53,24,30.23,30.08,9,2,17,0.00
2013-7-14,90,72,53,55,51,46,84,51,23,30.16,30.00,6,1,9,0.00
2013-7-15,89,72,55,55,49,42,69,47,29,30.07,29.85,6,2,12,0.00
2013-7-16,85,71,60,62,55,50,81,58,38,30.09,29.84,4,1,8,0.00
2013-7-17,81,67,60,57,54,52,81,65,37,30.24,30.10,4,1,7,0.00
2013-7-18,86,69,53,61,55,51,91,65,32,30.28,30.12,5,1,9,0.00
2013-7-19,87,69,53,61,56,50,90,67,41,30.22,30.05,6,1,14,0.00
2013-7-20,84,67,53,62,56,51,92,71,46,30.16,29.99,6,1,11,0.00
2013-7-21,87,70,53,61,56,50,89,64,37,30.06,29.93,9,2,11,0.00
2013-7-22,88,71,56,58,55,51,91,62,30,30.11,29.99,6,1,11,0.00
2013-7-23,94,74,58,62,58,50,91,61,23,30.11,29.97,6,1,8,0.00
2013-7-24,94,77,58,59,55,45,86,52,19,30.10,30.00,6,1,11,0.00
2013-7-25,93,77,62,56,53,41,75,47,17,30.14,30.04,10,2,13,0.00
2013-7-26,92,75,57,56,51,45,74,46,24,30.20,30.10,12,2,12,0.00
2013-7-27,83,69,54,52,48,42,78,51,26,30.26,30.07,7,2,11,0.00
2013-7-28,79,63,47,55,51,45,96,66,42,30.15,30.02,6,1,9,0.00
2013-7-29,81,66,53,55,52,48,86,65,39,30.12,30.00,5,1,8,0.00
2013-7-30,82,66,49,60,54,48,96,69,40,30.22,30.12,6,1,8,0.00
2013-7-31,80,64,54,60,56,52,94,76,50,30.20,30.10,4,0,7,0.00
2013-8-1,66,62,58,56,54,53,84,76,68,30.21,30.15,3,0,6,0.00
2013-8-2,76,65,56,56,54,52,90,71,48,30.24,30.15,6,1,9,0.00
2013-8-3,84,69,54,60,57,53,93,68,37,30.19,30.03,5,1,9,0.00
2013-8-4,91,73,57,62,59,55,94,64,31,30.09,29.95,6,0,9,0.00
2013-8-5,92,73,56,62,58,53,93,64,30,30.08,29.95,4,0,9,0.00
2013-8-6,94,75,54,57,51,39,91,50,15,30.06,29.94,3,0,8,0.00
2013-8-7,77,64,56,58,53,51,86,69,48,30.12,30.00,5,0,9,0.00
2013-8-8,86,66,53,62,56,51,92,72,42,30.15,29.96,4,0,10,0.00
2013-8-9,86,71,62,62,59,57,90,69,37,30.01,29.89,5,0,12,0.02
2013-8-10,79,66,56,61,58,55,93,75,53,30.13,29.98,7,1,9,0.00
2013-8-11,78,65,56,60,56,54,92,76,52,30.16,30.05,4,0,8,0.00
2013-8-12,79,65,56,60,56,52,92,75,49,30.16,30.08,4,0,5,0.00
2013-8-13,87,66,48,60,53,47,97,67,28,30.19,29.99,4,1,8,0.00
2013-8-14,88,68,54,61,55,49,92,67,26,30.05,29.99,6,0,8,0.00
2013-8-15,81,71,63,68,63,59,87,76,58,30.05,30.00,3,0,6,0.00
2013-8-16,86,72,61,67,62,56,92,73,46,30.12,30.04,5,1,8,0.00
2013-8-17,86,69,53,62,57,52,95,69,38,30.17,30.08,4,1,8,0.00
2013-8-18,86,70,55,61,58,53,96,70,38,30.21,30.08,6,1,9,0.00
2013-8-19,86,72,60,60,57,54,85,62,36,30.19,30.08,6,1,11,0.00
2013-8-20,85,69,54,55,51,46,82,56,26,30.21,30.02,10,2,13,0.00
2013-8-21,88,72,56,60,54,51,81,56,33,30.07,29.91,6,1,10,0.00
2013-8-22,85,71,60,62,58,56,89,67,42,29.98,29.91,3,0,5,0.01
2013-8-23,79,64,52,59,56,51,97,77,47,30.03,29.95,4,0,7,0.01
2013-8-24,78,67,58,61,56,54,91,71,48,30.00,29.91,2,0,6,0.00
2013-8-25,72,62,55,61,56,51,90,81,67,30.02,29.97,2,0,5,0.09
2013-8-26,80,65,53,59,54,50,97,72,37,30.05,29.98,5,1,12,0.00
2013-8-27,86,69,59,63,58,55,90,69,38,30.04,29.86,5,0,10,0.00
2013-8-28,83,70,59,63,61,58,97,74,47,29.98,29.91,2,0,10,0.02
2013-8-29,76,68,62,67,63,61,96,84,66,30.16,29.93,10,1,17,0.08
2013-8-30,85,71,59,63,60,56,97,71,41,30.23,30.10,3,0,7,0.00
2013-8-31,89,72,56,62,58,53,92,64,36,30.10,29.88,4,1,8,0.00
2013-9-1,86,68,54,57,55,52,93,67,36,29.99,29.86,6,1,11,0.00
2013-9-2,81,70,60,61,56,53,86,64,41,30.01,29.95,5,0,13,0.00
2013-9-3,83,70,60,57,55,52,84,63,37,30.08,30.00,5,1,11,0.00
2013-9-4,77,67,58,59,57,55,91,72,51,30.12,30.07,4,0,6,0.00
2013-9-5,70,61,58,62,59,57,97,92,75,30.15,30.07,4,0,11,3.87
2013-9-6,74,64,56,63,58,55,97,85,56,30.24,30.15,3,0,8,0.60
2013-9-7,79,64,54,62,58,53,97,83,53,30.18,30.02,3,0,7,0.00
2013-9-8,85,71,57,65,60,55,97,72,39,30.14,30.04,4,0,11,0.00
2013-9-9,85,71,57,65,61,56,97,73,48,30.10,29.96,5,0,9,0.00
2013-9-10,90,74,61,67,63,59,93,71,46,29.98,29.81,3,0,8,0.00
2013-9-11,94,72,58,67,62,57,97,72,37,30.03,29.86,0,0,5,0.00
2013-9-12,86,67,58,66,60,56,93,79,52,30.08,29.97,2,0,4,0.00
2013-9-13,80,65,55,66,59,54,97,83,60,30.05,29.89,2,0,5,0.00
2013-9-14,78,64,59,65,61,58,96,88,64,29.92,29.78,3,0,5,0.01
2013-9-15,70,63,58,61,58,56,95,86,74,29.99,29.82,2,0,6,0.00
2013-9-16,74,64,58,59,57,55,89,79,56,30.07,29.98,4,0,10,0.00
2013-9-17,71,62,55,58,54,51,91,78,60,30.12,29.94,4,0,10,0.04
2013-9-18,74,60,51,57,51,46,97,75,39,30.19,30.08,3,0,5,0.00
2013-9-19,81,60,44,58,51,43,97,75,38,30.08,29.86,1,0,4,0.00
2013-9-20,72,58,48,59,54,47,97,88,58,29.87,29.76,3,0,10,0.20
2013-9-21,68,59,52,58,55,51,98,88,62,29.90,29.77,3,0,8,0.01
2013-9-22,60,57,53,57,54,52,96,89,77,29.98,29.80,15,2,16,0.13
2013-9-23,64,58,54,57,55,52,96,90,76,30.09,29.98,6,1,13,0.06
2013-9-24,60,54,50,55,52,49,97,93,73,30.08,29.96,3,0,11,0.47
2013-9-25,63,53,48,52,49,47,97,89,65,30.14,29.96,5,0,7,0.03
2013-9-26,68,53,45,54,48,45,98,87,53,30.28,30.14,2,0,5,0.19
2013-9-27,55,50,43,54,49,43,98,95,88,30.28,30.05,6,1,11,0.26
2013-9-28,65,60,55,59,56,54,94,90,80,30.04,29.62,13,4,19,0.35
2013-9-29,56,54,53,55,52,49,96,93,84,29.81,29.54,10,4,27,1.53
2013-9-30,60,54,50,55,50,47,94,87,77,30.12,29.75,8,1,15,0.50
2013-10-1,63,52,41,53,47,41,97,86,52,30.30,30.10,4,0,9,0.46
2013-10-2,56,46,39,50,44,39,98,93,77,30.29,30.18,3,0,8,0.20
2013-10-3,60,48,42,50,44,41,98,87,57,30.50,30.29,4,0,7,0.00
2013-10-4,62,48,38,52,44,37,97,89,64,30.55,30.42,5,0,7,0.00
2013-10-5,69,50,37,54,45,37,98,84,52,30.43,30.23,1,0,6,0.01
2013-10-6,77,55,41,57,47,40,98,77,29,30.23,30.06,4,0,10,0.01
2013-10-7,64,55,48,53,49,46,95,82,55,30.26,30.09,7,0,9,0.04
2013-10-8,57,51,42,53,47,40,95,89,67,30.27,30.09,4,0,7,0.06
2013-10-9,62,49,41,47,43,40,97,83,55,30.18,30.07,5,1,8,0.00
2013-10-10,63,51,41,52,47,40,97,85,56,30.19,30.05,1,0,4,0.01
2013-10-11,60,51,43,49,45,41,97,82,56,30.24,30.19,0,0,3,0.00
2013-10-12,60,50,44,50,46,43,97,87,65,30.25,30.17,1,0,4,0.03
2013-10-13,61,49,41,50,45,40,97,87,65,30.38,30.25,3,0,7,0.01
2013-10-14,66,52,38,49,45,37,97,77,54,30.44,30.34,5,1,8,0.00
2013-10-15,68,54,43,44,42,39,86,67,41,30.38,30.20,5,0,8,0.00
2013-10-16,69,50,37,51,44,36,97,83,51,30.25,30.19,4,0,6,0.00
2013-10-17,63,47,37,51,44,36,98,90,65,30.32,30.22,3,0,7,0.01
2013-10-18,70,50,36,51,43,35,98,82,45,30.27,30.16,3,0,8,0.00
2013-10-19,69,49,37,53,45,37,98,87,56,30.25,30.17,0,0,0,0.01
2013-10-20,67,49,40,52,45,39,97,88,59,30.25,30.14,2,0,4,0.01
2013-10-21,69,50,40,54,46,39,98,88,57,30.18,30.05,2,0,6,0.00
2013-10-22,72,52,42,56,48,41,98,87,54,30.14,30.04,2,0,4,0.01
2013-10-23,70,52,43,57,48,42,98,90,62,30.11,30.02,2,0,3,0.01
2013-10-24,62,50,44,54,48,43,98,93,75,30.19,30.07,0,0,3,0.01
2013-10-25,52,50,47,50,49,47,98,96,93,30.36,30.19,2,0,6,0.01
2013-10-26,51,50,49,49,48,47,95,92,89,30.37,30.26,3,0,6,0.00
2013-10-27,56,51,48,53,47,43,95,86,71,30.26,29.92,6,1,11,0.05
2013-10-28,58,49,36,43,39,33,90,70,45,30.00,29.88,6,0,10,0.00
2013-10-29,59,42,30,38,34,29,96,77,37,30.17,30.00,3,0,4,0.00
2013-10-30,60,45,30,47,38,29,98,81,50,30.29,30.17,1,0,5,0.00
2013-10-31,56,52,47,53,48,45,97,88,79,30.36,30.27,3,0,5,0.00
2013-11-1,58,51,47,51,49,47,98,92,76,30.37,30.02,2,0,5,0.00
2013-11-2,57,49,42,51,46,40,97,89,67,30.20,29.88,5,1,12,0.06
2013-11-3,52,45,38,45,42,37,98,91,73,30.29,30.20,4,0,6,0.11
2013-11-4,51,47,43,47,44,42,96,92,81,30.28,30.22,6,1,12,0.25
2013-11-5,55,51,48,53,50,46,97,95,92,30.34,30.19,7,1,13,0.31
2013-11-6,57,53,50,56,53,49,98,97,94,30.37,30.18,2,0,3,0.05
2013-11-7,56,51,44,54,49,42,98,92,73,30.25,30.02,11,1,16,0.31
2013-11-8,54,48,43,49,46,42,98,91,77,30.31,30.20,2,0,5,0.02
2013-11-9,48,45,43,45,43,42,98,93,87,30.20,30.13,2,0,4,0.00
2013-11-10,55,45,40,49,43,39,98,94,79,30.19,30.13,3,0,3,0.01
2013-11-11,52,45,42,49,44,41,98,96,87,30.24,30.12,3,0,3,0.00
2013-11-12,59,50,45,56,50,45,98,96,90,30.52,30.20,1,0,3,0.23
2013-11-13,52,49,48,50,48,46,98,96,91,30.57,30.39,5,0,6,0.01
2013-11-14,53,48,45,48,46,44,98,93,80,30.39,30.20,3,0,5,0.14
2013-11-15,49,45,41,46,44,40,98,95,90,30.20,29.73,9,1,12,0.10
2013-11-16,53,47,43,46,44,42,97,87,70,29.98,29.70,7,0,14,0.10
2013-11-17,54,49,42,47,45,41,95,85,76,30.12,29.99,6,1,12,0.00
2013-11-18,52,49,45,49,45,42,94,87,72,30.09,29.86,8,1,13,0.26
2013-11-19,55,49,40,53,47,34,96,93,76,30.11,29.82,6,2,12,0.18
2013-11-20,46,38,33,35,31,24,89,76,62,30.44,30.11,7,2,17,0.00
2013-11-21,47,37,29,24,20,17,69,53,35,30.65,30.45,11,2,12,0.00
2013-11-22,49,35,23,28,23,19,94,63,38,30.65,30.46,6,1,10,0.00
2013-11-23,52,38,25,31,25,19,93,63,38,30.46,30.25,5,0,9,0.00
2013-11-24,50,34,23,32,28,22,96,80,47,30.39,30.26,1,0,4,0.00
2013-11-25,49,34,24,37,30,23,97,87,62,30.46,30.38,1,0,2,0.00
2013-11-26,45,36,28,40,34,27,98,92,79,30.39,30.17,0,0,2,0.01
2013-11-27,48,37,31,40,33,30,98,89,65,30.17,30.05,4,0,5,0.00
2013-11-28,49,35,27,38,32,26,97,88,64,30.31,30.12,2,0,4,0.00
2013-11-29,45,36,27,40,34,26,97,93,82,30.47,30.31,1,0,1,0.02
2013-11-30,51,43,36,46,41,36,98,93,82,30.50,30.35,2,0,2,0.00
2013-12-1,55,52,48,54,50,45,97,93,84,30.35,30.08,6,1,15,0.69
2013-12-2,52,43,33,51,40,32,97,92,75,30.16,30.04,5,0,11,0.55
2013-12-3,42,34,29,36,30,22,98,86,64,30.36,30.16,4,0,9,0.01
2013-12-4,37,30,24,23,20,17,84,69,46,30.43,30.36,5,1,8,0.00
2013-12-5,30,24,17,21,18,15,94,79,62,30.40,30.26,3,0,6,0.00
2013-12-6,27,25,23,24,21,16,93,85,70,30.25,30.03,11,2,13,0.00
2013-12-7,28,22,13,16,11,6,75,63,47,30.54,30.14,6,1,10,0.00
2013-12-8,24,13,3,15,9,1,92,83,57,30.72,30.54,0,0,4,0.00
2013-12-9,29,18,7,22,15,5,93,85,73,30.76,30.65,1,0,2,0.00
2013-12-10,33,24,18,26,21,16,95,88,75,30.67,30.52,0,0,3,0.01
2013-12-11,32,21,16,27,19,14,95,92,81,30.52,30.33,0,0,2,0.00
2013-12-12,38,27,16,37,26,15,97,95,92,30.34,30.23,0,0,1,0.02
2013-12-13,50,41,36,47,40,35,98,95,86,30.55,30.33,1,0,3,0.04
2013-12-14,41,39,36,40,38,36,98,97,94,30.57,30.49,2,0,8,0.01
2013-12-15,49,42,37,44,41,37,98,94,81,30.58,30.52,1,0,4,0.08
2013-12-16,46,42,39,43,41,39,98,96,90,30.57,30.35,2,0,6,0.01
2013-12-17,39,37,35,39,37,35,98,97,94,30.35,30.28,1,0,3,0.01
2013-12-18,41,38,34,40,37,33,98,97,93,30.30,30.16,4,0,9,0.06
2013-12-19,37,32,29,34,31,28,98,94,86,30.43,30.23,3,0,5,0.01
2013-12-20,44,37,31,43,35,30,97,94,86,30.35,30.05,6,0,11,0.03
2013-12-21,55,47,43,48,44,42,98,91,75,30.36,30.08,3,0,7,0.00
2013-12-22,57,48,40,50,45,40,98,92,76,30.47,30.35,2,0,6,0.02
2013-12-23,52,45,34,51,44,33,98,96,86,30.64,30.44,4,0,10,0.17
2013-12-24,43,34,29,41,34,29,98,97,89,30.70,30.59,6,0,7,0.01
2013-12-25,36,35,33,35,34,33,98,98,96,30.59,30.50,1,0,4,0.01
2013-12-26,34,33,31,34,32,31,98,98,97,30.51,30.34,1,0,3,0.00
2013-12-27,35,33,30,35,32,29,98,98,96,30.50,30.32,3,0,4,0.01
2013-12-28,42,37,32,40,36,31,98,94,86,30.61,30.50,2,0,5,0.00
2013-12-29,41,38,36,38,36,35,96,92,87,30.56,30.40,3,0,6,0.00
2013-12-30,42,37,34,39,36,33,98,95,88,30.39,30.31,1,0,4,0.00
2013-12-31,50,39,34,44,38,33,98,94,77,30.44,30.34,1,0,4,0.01
2014-1-1,40,38,32,40,37,31,98,98,97,30.47,30.37,1,0,3,0.01
2014-1-2,43,39,35,42,38,35,98,97,92,30.38,30.18,2,0,3,0.01